Hamilton, OH

12:53 AM EDT on May 26, 2017 (GMT -0400)
Butler County Regional

Weather History for KHAO - November, 2013

Change the Weather History Date:

Friday, November 29, 2013

  Actual Average (KLUK) Record (KLUK)
Temperature  
Mean Temperature 26 °F -  
Max Temperature 41 °F 44 °F 71 °F (2006)
Min Temperature 12 °F 31 °F 13 °F (1976)
Degree Days  
Heating Degree Days 38    
Moisture  
Dew Point 16 °F    
Average Humidity 72    
Maximum Humidity 88    
Minimum Humidity 41    
Precipitation  
Precipitation 0.00 in - - ()
Sea Level Pressure  
Sea Level Pressure 30.60 in    
Wind  
Wind Speed 1 mph (East)    
Max Wind Speed 6 mph    
Max Gust Speed -    
Visibility 10 miles    
Events      
Averages and records for this station are not official NWS values.
T = Trace of Precipitation, MM = Missing Value Source: NWS Daily Summary

Daily Weather History Graph

Daily Weather History Graph

Search for Another Location

Airport or City:

Trip Planner

Search our weather history database for the weather conditions in past years. The results will help you decide how hot, cold, wet, or windy it might be!

Date:

Astronomy

Nov. 29, 2013 Rise Set
Actual Time 7:37 AM EST 5:15 PM EST
Civil Twilight 7:07 AM EST 5:45 PM EST
Nautical Twilight 6:34 AM EST 6:18 PM EST
Astronomical Twilight 6:02 AM EST 6:50 PM EST
Moon 3:42 AM EST (11/29) 2:58 PM EST (11/29)
Length of Visible Light 10h 37m
Length of Day
9h 38m
Waning Crescent, 14% of the Moon is Illuminated
Nov 29
Waning Crescent
Dec 2
New
Dec 9
First Quarter
Dec 17
Full
Dec 25
Last Quarter

Hourly Weather History & Observations

Time (EST) Temp. Windchill Dew Point Humidity Pressure Visibility Wind Dir Wind Speed Gust Speed Precip Events Conditions
12:53 AM 16.0 °F - 12.9 °F 88% 30.49 in 10.0 mi Calm Calm - N/A   Clear
1:53 AM 16.0 °F - 12.9 °F 88% 30.51 in 10.0 mi Calm Calm - N/A   Clear
2:53 AM 15.1 °F - 12.0 °F 88% 30.53 in 10.0 mi Calm Calm - N/A   Clear
3:53 AM 14.0 °F - 10.9 °F 88% 30.55 in 9.0 mi Calm Calm - N/A   Clear
4:53 AM 14.0 °F - 10.0 °F 84% 30.57 in 9.0 mi Calm Calm - N/A   Clear
5:53 AM 12.9 °F - 10.0 °F 88% 30.58 in 10.0 mi Calm Calm - N/A   Clear
6:53 AM 12.9 °F - 9.0 °F 84% 30.62 in 10.0 mi Calm Calm - N/A   Clear
7:53 AM 14.0 °F - 10.0 °F 84% 30.64 in 10.0 mi Calm Calm - N/A   Clear
8:53 AM 21.9 °F - 18.0 °F 85% 30.66 in 7.0 mi Calm Calm - N/A   Clear
9:53 AM 28.9 °F - 21.9 °F 75% 30.66 in 9.0 mi Calm Calm - N/A   Clear
10:53 AM 34.0 °F 28.8 °F 21.0 °F 59% 30.67 in 10.0 mi East 5.8 mph - N/A   Clear
11:53 AM 37.0 °F 34.5 °F 19.0 °F 48% 30.66 in 10.0 mi Variable 3.5 mph - N/A   Clear
12:53 PM 37.9 °F 34.4 °F 19.0 °F 47% 30.63 in 10.0 mi East 4.6 mph - N/A   Clear
1:53 PM 39.9 °F 37.8 °F 19.0 °F 43% 30.62 in 10.0 mi East 3.5 mph - N/A   Clear
2:53 PM 41.0 °F 39.0 °F 19.0 °F 41% 30.61 in 10.0 mi ESE 3.5 mph - N/A   Clear
3:53 PM 39.9 °F - 19.9 °F 45% 30.61 in 10.0 mi Calm Calm - N/A   Clear
4:53 PM 37.0 °F 33.3 °F 19.9 °F 50% 30.61 in 10.0 mi East 4.6 mph - N/A   Clear
5:53 PM 32.0 °F 27.5 °F 19.9 °F 61% 30.61 in 10.0 mi ESE 4.6 mph - N/A   Clear
6:53 PM 28.0 °F - 19.9 °F 72% 30.61 in 10.0 mi Calm Calm - N/A   Clear
7:53 PM 24.1 °F - 18.0 °F 77% 30.62 in 10.0 mi Calm Calm - N/A   Clear
8:53 PM 23.0 °F 18.4 °F 18.0 °F 81% 30.61 in 10.0 mi ESE 3.5 mph - N/A   Clear
9:53 PM 24.1 °F 18.2 °F 18.0 °F 77% 30.59 in 10.0 mi East 4.6 mph - N/A   Clear
10:53 PM 23.0 °F 18.4 °F 18.0 °F 81% 30.58 in 10.0 mi East 3.5 mph - N/A   Clear
11:53 PM 21.9 °F - 18.0 °F 85% 30.56 in 10.0 mi Calm Calm - N/A   Clear